sat.trackr.live / text

‹ back to catalog

STARLINK-34643

NORAD 64923 · 2025-157V

PAYLOAD ACTIVE UNKNOWN

§ Identity

Operator
Country
US
Launch date
2025-07-26
Launch site
AFETR
Launch vehicle
Mass (kg)
RCS (m²)

Purposes: comms

External: N2YO · Heavens-Above · Gunter

§ Orbital elements

Epoch: 2026-09-20T10:11:45.259296Z

Period
93.85 min
Inclination
53.1586°
Eccentricity
0.0001139
Mean motion
15.34413154 rev/d
Perigee alt
461.9 km
Apogee alt
463.4 km
Semi-major
6,840.8 km
B*
4.0408e-4
RAAN
157.9466°
Arg perigee
96.1145°
Mean anomaly
263.9987°
Rev number
6,598

§ Raw data

STARLINK-346431 64923U 25157V   26263.42482939  .00013306  00000+0  40408-3 0  99952 64923  53.1586 157.9466 0001139  96.1145 263.9987 15.34413154 65985

JSON: /api/v1/satellites/64923 · /tle

For live sub-satellite position, see the globe view (requires WebGL).

§ Visibility from observer

Set your observer location to see the next 7 days of passes ≥ 10°. The values pass through the URL so the page stays shareable.

No JS? Fill the form by hand. The geolocation button needs JavaScript.